Location: Newark
(25.0000°N, 73.5000°E)
Time: 07:54:09
(UTC+00:00)

RS-15 - Pass Details

Date: 24 February 2020
Orbit: 1898 x 2146 km, 64.8° (Epoch: 04 April)

Event Time Altitude Azimuth Distance (km) Brightness Sun altitude
Rises 16:34:15 0° 259° (W) 5,344 10.9 -47.9°
Reaches altitude 10° 16:39:33 10° 279° (W) 4,314 10.3 -49.0°
Maximum altitude 16:45:46 16° 315° (NW) 3,790 9.8 -50.4°
Drops below altitude 10° 16:52:00 10° 351° (N) 4,286 10.0 -51.7°
Sets 16:57:20 0° 11° (NNE) 5,292 10.4 -52.9°
